Regional Weather Roundup
Issued by NWS

Home | Current Version | Previous Version | Text Only | Print | Product List | Glossary On
Versions: 1 2 3 4 5 6 7 8 9 10 11 12 13 14 15 16 17 18 19 20 21 22 23 24 25 26 27 28 29 30 31 32 33 34 35 36 37 38 39 40 41 42 43 44 45 46 47 48 49 50
000
ASUS43 KLSX 172059
RWRMO

WEATHER SUMMARY FOR MISSOURI
NATIONAL WEATHER SERVICE SPRINGFIELD MO
400 PM CDT THU APR 17 2014

NOTE: "FAIR" INDICATES FEW OR NO CLOUDS BELOW 12,000 FEET WITH NO
       SIGNIFICANT WEATHER AND/OR OBSTRUCTIONS TO VISIBILITY.
       CURRENT SKY AND/OR WEATHER CONDITIONS ARE NOT AVAILABLE FOR
       CHILLICOTHE AND FARMINGTON.

MOZ001>031-035>038-043-044-053-054-172200-
...NORTHERN AND WESTERN MISSOURI...

CITY           SKY/WX    TMP DP  RH WIND       PRES   REMARKS
KANSAS CTY INT CLOUDY    47  31  53 E3        30.28F
KANSAS C DTWN  CLOUDY    47  32  56 CALM      30.28F
LEE`S SUMMIT   CLOUDY    44  32  62 CALM      30.28F
ST JOSEPH      MOSUNNY   52  30  43 MISG      30.27F
KIRKSVILLE     CLOUDY    51  33  50 CALM      30.26S

$$
MOZ066>068-077>081-088>096-101>105-172200-
...SOUTHWEST MISSOURI...

CITY           SKY/WX    TMP DP  RH WIND       PRES   REMARKS
SPRINGFIELD    CLOUDY    63  39  41 NW8       30.21S
JOPLIN         CLOUDY    60  42  51 N10       30.23F

$$
MOZ032>034-039>042-045>050-055>058-069>072-172200-
...CENTRAL MISSOURI...

CITY           SKY/WX    TMP DP  RH WIND       PRES   REMARKS
COLUMBIA       CLOUDY    53  39  59 NW12      30.25F
JEFFERSON CITY CLOUDY    57  38  48 NW7       30.24F
ROLLA          PTSUNNY   61  39  44 N9        30.20F
SEDALIA        CLOUDY    48  38  68 NW6       30.28F
OSAGE BEACH    PTSUNNY   61  36  39 CALM      30.24S

$$
MOZ051-052-059>065-172200-
...EAST CENTRAL MISSOURI...

CITY           SKY/WX    TMP DP  RH WIND       PRES   REMARKS
ST LOUIS INTL  CLOUDY    65  38  36 N3        30.22F
SPIRIT OF STL  PTSUNNY   65  36  34 VRB3      30.20F
ST CHARLES     PTSUNNY   63  37  38 NW8       30.22F

$$
MOZ072>076-082>087-097>100-106>115-172200-
...SOUTH CENTRAL AND SOUTHEAST MISSOURI...

CITY           SKY/WX    TMP DP  RH WIND       PRES   REMARKS
CAPE GIRARDEAU SUNNY     66  42  41 S6        30.23F
FARMINGTON     PTSUNNY   66  30  26 E6        30.22F
POPLAR BLUFF   SUNNY     67  37  33 VRB6      30.22S
WEST PLAINS    MOSUNNY   66  33  29 CALM      30.20F

$$



USA.gov is the U.S. government's official web portal to all federal, state and local government web resources and services.